Вернуться в каталог

STARLINK-35037

АктивенСвязьVLEO
NORAD 65483·PAYLOAD·🇺🇸 United States

Запущен Sep 3, 2025 с Cape Canaveral Space Force Station

Loading…

Ближайшие Пролёты (ближайшие 24 часа)

TLE

СвежийSource: CelesTrak SupGP

Эпоха: Sep 14, 2026, 22:44 UTC

1 65483C 25195AB  26257.94770833  .00019595  00000+0  57904-3 0  2574
2 65483  53.1566  95.6999 0001269  86.4908  51.1094 15.34374799    17

Отслеживайте STARLINK-35037 в реальном времени с AllMySat

Download on the App Store